Cahokia, IL

5:10 PM CDT on March 23, 2017 (GMT -0500)
Saint Louis Downtown

Weather History for KCPS - January, 2014

Change the Weather History Date:

Sunday, January 26, 2014

  Actual Average Record
Temperature  
Mean Temperature 42 °F -  
Max Temperature 57 °F 41 °F 62 °F (1944)
Min Temperature 27 °F 25 °F 7 °F (1961)
Degree Days  
Heating Degree Days 22    
Moisture  
Dew Point 21 °F    
Average Humidity 45    
Maximum Humidity 69    
Minimum Humidity 29    
Precipitation  
Precipitation 0.00 in - - ()
Sea Level Pressure  
Sea Level Pressure 29.72 in    
Wind  
Wind Speed 12 mph (WSW)    
Max Wind Speed 34 mph    
Max Gust Speed 46 mph    
Visibility 10 miles    
Events      
Averages and records for this station are not official NWS values.
T = Trace of Precipitation, MM = Missing Value Source: NWS Daily Summary

Daily Weather History Graph

Daily Weather History Graph

Search for Another Location

Airport or City:

Trip Planner

Search our weather history database for the weather conditions in past years. The results will help you decide how hot, cold, wet, or windy it might be!

Date:

Astronomy

Jan. 26, 2014 Rise Set
Actual Time 7:10 AM CST 5:15 PM CST
Civil Twilight 6:42 AM CST 5:44 PM CST
Nautical Twilight 6:10 AM CST 6:16 PM CST
Astronomical Twilight 5:39 AM CST 6:47 PM CST
Moon 2:48 AM CST (1/26) 1:05 PM CST (1/26)
Length of Visible Light 11h 01m
Length of Day
10h 04m
Waning Crescent, 23% of the Moon is Illuminated
Jan 26
Waning Crescent
Jan 30
New
Feb 6
First Quarter
Feb 14
Full
Feb 22
Last Quarter

Hourly Weather History & Observations

Time (CST) Temp. Windchill Dew Point Humidity Pressure Visibility Wind Dir Wind Speed Gust Speed Precip Events Conditions
12:53 AM 28.0 °F 24.2 °F 8.1 °F 43% 29.90 in 10.0 mi SSE 3.5 mph - N/A   Overcast
1:53 AM 28.9 °F 21.9 °F 6.1 °F 38% 29.83 in 10.0 mi South 6.9 mph - N/A   Overcast
2:53 AM 30.0 °F 20.5 °F 3.0 °F 32% 29.74 in 10.0 mi South 11.5 mph - N/A   Partly Cloudy
3:53 AM 32.0 °F 23.6 °F 3.0 °F 29% 29.69 in 10.0 mi South 10.4 mph - N/A   Overcast
4:53 AM 32.0 °F 23.6 °F 3.9 °F 31% 29.66 in 10.0 mi South 10.4 mph - N/A   Overcast
5:53 AM 35.1 °F 25.2 °F 6.1 °F 30% 29.63 in 10.0 mi SSW 16.1 mph 26.5 mph N/A   Scattered Clouds
6:53 AM 35.1 °F 25.5 °F 9.0 °F 34% 29.65 in 10.0 mi SSW 15.0 mph 21.9 mph N/A   Clear
7:53 AM 37.0 °F 29.8 °F 15.1 °F 41% 29.65 in 10.0 mi SSW 10.4 mph - N/A   Scattered Clouds
8:53 AM 39.9 °F 35.1 °F 21.0 °F 47% 29.66 in 10.0 mi SSW 6.9 mph - N/A   Clear
9:53 AM 48.9 °F - 30.0 °F 48% 29.65 in 10.0 mi WSW 10.4 mph - N/A   Clear
10:53 AM 52.0 °F - 30.9 °F 45% 29.65 in 10.0 mi West 9.2 mph - N/A   Clear
11:53 AM 55.9 °F - 33.1 °F 42% 29.62 in 10.0 mi West 13.8 mph - N/A   Clear
12:53 PM 57.0 °F - 33.1 °F 40% 29.59 in 10.0 mi West 11.5 mph - N/A   Clear
1:53 PM 57.9 °F - 30.9 °F 36% 29.57 in 10.0 mi WSW 17.3 mph 26.5 mph N/A   Clear
2:53 PM 57.9 °F - 32.0 °F 37% 29.57 in 10.0 mi West 12.7 mph - N/A   Clear
3:53 PM 57.0 °F - 30.9 °F 37% 29.59 in 10.0 mi West 15.0 mph - N/A   Clear
4:53 PM 55.0 °F - 30.0 °F 38% 29.60 in 10.0 mi West 9.2 mph 17.3 mph N/A   Clear
5:53 PM 52.0 °F - 30.0 °F 43% 29.65 in 10.0 mi WNW 8.1 mph - N/A   Clear
6:53 PM 51.1 °F - 28.9 °F 43% 29.65 in 10.0 mi SW 3.5 mph - N/A   Clear
7:53 PM 50.0 °F - 28.9 °F 44% 29.67 in 10.0 mi WSW 6.9 mph - N/A   Mostly Cloudy
8:53 PM 51.1 °F - 28.0 °F 41% 29.70 in 10.0 mi West 6.9 mph - N/A   Partly Cloudy
9:33 PM 46.4 °F 36.5 °F 28.4 °F 50% 29.78 in 10.0 mi North 34.5 mph 46.0 mph N/A   Overcast
9:49 PM 37.4 °F 25.9 °F 26.6 °F 65% 29.83 in 10.0 mi North 25.3 mph 41.4 mph N/A   Scattered Clouds
9:53 PM 37.0 °F 23.9 °F 26.1 °F 65% 29.84 in 10.0 mi North 33.4 mph 42.6 mph N/A   Partly Cloudy
10:53 PM 32.0 °F 18.4 °F 21.9 °F 66% 29.94 in 10.0 mi North 26.5 mph 33.4 mph N/A   Mostly Cloudy
11:04 PM 30.2 °F 17.1 °F 21.2 °F 69% 29.95 in 10.0 mi North 21.9 mph 38.0 mph N/A   Overcast
11:32 PM 28.4 °F 13.5 °F 19.4 °F 69% 29.99 in 9.0 mi NNW 26.5 mph 33.4 mph 0.00 in   Overcast
11:53 PM 27.0 °F 12.5 °F 12.9 °F 56% 30.01 in 10.0 mi NNW 23.0 mph 35.7 mph 0.00 in   Overcast